This demonstration page uses our WeatherBlox Daily Observations layout. Learn more.

Left ArrowRight Arrow

Hourly Observations for September 22, 2017

Temp ( °F °C ) Dew Point ( °F °C ) Humidity (%) Winds ( mph kmh ) Pressure ( in mb ) Visibility ( mi km ) Precip ( " mm )
12:54 am 00:54 Clear 81 27.2 71 21.7 72 72 S 17 28 29.74 1007 10 16.0934 0 0
1:54 am 01:54 Clear 81 27.2 71 21.7 72 72 S 16 26 29.75 1008 10 16.0934 0 0
2:54 am 02:54 Clear 80 26.7 70 21.1 71 71 S 16 26 29.75 1008 10 16.0934 0 0
3:54 am 03:54 Clear 79 26.1 70 21.1 74 74 S 17 28 29.75 1008 10 16.0934 0 0
4:54 am 04:54 Clear 78 25.6 69 20.6 74 74 S 14 22 29.77 1008 10 16.0934 0 0
5:54 am 05:54 Clear 76 24.4 69 20.6 79 79 S 14 22 29.77 1008 10 16.0934 0 0
6:54 am 06:54 Clear 75 23.9 69 20.6 82 82 S 14 22 29.78 1008 10 16.0934 0 0
7:54 am 07:54 Sunny 76 24.4 68 20 77 77 S 15 24 29.78 1009 9 14.48406 0 0
8:54 am 08:54 Sunny 78 25.6 68 20 71 71 S 17 28 29.78 1008 9 14.48406 0 0
9:54 am 09:54 Sunny 83 28.3 68 20 61 61 S 18 30 29.78 1009 10 16.0934 0 0
10:54 am 10:54 Sunny 87 30.6 69 20.6 55 55 S 22 35 29.79 1009 10 16.0934 0 0
11:54 am 11:54 Sunny 90 32.2 68 20 48 48 S 22 35 29.78 1009 10 16.0934 0 0
12:54 pm 12:54 Sunny 93 33.9 67 19.4 42 42 S 24 39 29.77 1008 10 16.0934 0 0
1:54 pm 13:54 Sunny 95 35 68 20 41 41 S 25 41 29.75 1007 10 16.0934 0 0
2:54 pm 14:54 Sunny 96 35.6 64 17.8 35 35 S 24 39 29.75 1007 10 16.0934 0 0
3:54 pm 15:54 Sunny 97 36.1 65 18.3 35 35 S 24 39 29.74 1007 10 16.0934 0 0
4:54 pm 16:54 Sunny 95 35 63 17.2 35 35 S 22 35 29.75 1007 10 16.0934 0 0
5:54 pm 17:54 Sunny 93 33.9 64 17.8 38 38 S 24 39 29.75 1008 10 16.0934 0 0
6:54 pm 18:54 Sunny 89 31.7 66 18.9 47 47 SSE 18 30 29.77 1008 10 16.0934 0 0
7:54 pm 19:54 Clear 86 30 67 19.4 53 53 SSE 18 30 29.78 1008 10 16.0934 0 0
8:54 pm 20:54 Clear 84 28.9 67 19.4 57 57 SSE 20 31 29.8 1009 10 16.0934 0 0
9:54 pm 21:54 Clear 82 27.8 67 19.4 60 60 SSE 18 30 29.82 1010 10 16.0934 0 0
10:54 pm 22:54 Clear 80 26.7 67 19.4 64 64 SSE 16 26 29.83 1010 10 16.0934 0 0
11:54 pm 23:54 Clear 79 26.1 67 19.4 67 67 SSE 15 24 29.83 1010 10 16.0934 0 0

Powered by AerisWeather